STARLINK-32652, 62234

Orbit data source: Space-Track

STARLINK-32652, 62234 is a payload satellite owned by SpaceX/Seattle (US) in LEO that was launched on Thu, 05 Dec 2024 UTC via an FALCON 9 launch vehicle from the Air Force Western Test Range (AFWTR). Payload-class satellites include a variety of spacecraft equipped with specific instruments for various scientific and technological missions. These include communications satellites like Starlink; space stations such as the ISS; scientific satellites like the Hubble; Earth observation satellites from companies like Planet Labs, Umbra, and HawkEye 360; GPS; miniature CubeSats for education and research; and military/defense satellites.

Loading next visibility...
Identifier
62234, 2024-231S
Orbit
LEO
Country
Flag of USUS
Related business
Manufacturer
SpaceX/Seattle
Mission
Operational Commercial Communications
Bus & Motor
STARLINK V2M, Unknown motor
Mass
730 kg wet, ~700 kg dry
Launch date (UTC)
2024-12-05 (11 months ago)
Launch vehicle
FALCON 9
Launch site
Air Force Western Test Range (AFWTR)
Object type
Payload
Rocket body
Debris
Shape & HBR
Box + 2 Pan, 17.7 m
Radar Cross Section
33.884 m², Large (>1 m²)

Expand to show TLE details & history
Last TLE update: 5 hours ago

TLE from 5 hours ago
0 STARLINK-32652
1 62234U 24231S   25308.64606247  .00040813  00000-0  13806-2 0  9998
2 62234  53.1598  80.4432 0002242  99.4332 260.6922 15.30244792 52619
Epoch: 2025-11-04T15:30Z
TLE epoch observation values (Epoch: 2025-11-04T15:30:19.797Z)
Latitude
-0.00004°
Longitude
163.73058°
Altitude
476.23 km
Speed
7.629 km/s
True Right ascension
05h 21m 46s
True Declination
0° 00' 00"
Sunlit
Object was in full shadow at epoch
Visualization orbit readout
Latitude
Unknown
Longitude
Unknown
Altitude
Unknown
Speed
Unknown
Apparent Right ascension
Unknown
Apparent Declination
Unknown
Sunlit
N/A
Visualization observer readout
Local Sidereal Time
16:03:01
Azimuth
Unknown
Elevation
Unknown
Doppler factor
Unknown
Orbital elements
Apogee altitude
476.874 km
Perigee altitude
473.801 km
Semi-major axis
6,853.475 km
Eccentricity
0.00022
Inclination
53.1598°
RAAN
80.4432°
Arg. of periapsis
99.4332°
True anomaly
260.66685°
Mean anomaly
260.6922°
Eccentric anomaly
260.67952°
Mean motion
3.8254 °/min
Orbital period
94.11 mins
BSTAR
0.0013806
Loading maneuver chart data...
Computing Atmospheric mass density...
Loading historical data...
Loading historical data...
Loading historical data...
Loading historical data...
Loading historical data...
Loading historical data...
Loading historical data...

Documentation

Showing up to 5 results
|